KD5NDU-15 Weather Reports


time (UTC)temp
C
wind
direction
speed
KPH
gust
KPH
rain 1hr
cm
rain 24hr
cm
rain mn
cm
humidity
%
barometer
mb
20260506031925 21 179 1.6 3.2 0.00 0.00 0.00 89 1006.9
20260506031417 21 205 1.6 4.8 0.00 0.00 0.00 89 1006.9
20260506030917 21 213 1.6 3.2 0.00 0.00 0.00 89 1006.9
20260506030417 21 233 1.6 4.8 0.00 0.00 0.00 89 1007.0
20260506025917 21 86 3.2 6.4 0.00 0.00 0.00 89 1006.9
20260506025417 21 256 1.6 6.4 0.00 0.00 0.00 89 1006.8
20260506024917 21 238 1.6 3.2 0.00 0.00 0.00 88 1006.7
20260506024417 21 161 1.6 6.4 0.00 0.00 0.00 88 1006.7
20260506023917 21 272 1.6 3.2 0.00 0.00 0.00 88 1006.8
20260506023417 21 177 1.6 4.8 0.00 0.00 0.00 88 1006.9
20260506022945 21 198 1.6 8.0 0.00 0.00 0.00 88 1006.8
20260506022418 21 164 1.6 4.8 0.00 0.00 0.00 88 1006.7
20260506021917 21 180 3.2 8.0 0.00 0.00 0.00 88 1006.7
20260506021417 21 211 1.6 8.0 0.00 0.00 0.00 88 1006.6
20260506020917 21 144 1.6 6.4 0.00 0.00 0.00 88 1006.6
20260506020417 21 169 3.2 6.4 0.00 0.00 0.00 88 1006.5
20260506015917 21 172 3.2 9.7 0.00 0.00 0.00 88 1006.3
20260506015417 21 179 3.2 11.3 0.00 0.00 0.00 88 1006.3
20260506014946 21 169 3.2 9.7 0.00 0.00 0.00 88 1006.3
20260506014417 21 193 3.2 11.3 0.00 0.00 0.00 88 1006.2
20260506013917 21 225 3.2 6.4 0.00 0.00 0.00 88 1006.4
20260506013417 21 238 4.8 11.3 0.00 0.00 0.00 88 1006.1
20260506012917 21 165 4.8 11.3 0.00 0.00 0.00 89 1005.9
20260506012417 21 183 4.8 9.7 0.00 0.00 0.00 89 1006.1
20260506011918 21 236 3.2 9.7 0.00 0.00 0.00 89 1006.2
20260506011417 21 140 1.6 6.4 0.00 0.00 0.00 89 1006.3
20260506010925 21 193 3.2 8.0 0.00 0.00 0.00 89 1005.9
20260506010417 21 147 3.2 9.7 0.00 0.00 0.00 89 1006.1
20260506005917 21 168 3.2 9.7 0.00 0.00 0.00 89 1006.0
20260506005419 21 207 3.2 11.3 0.00 0.00 0.00 89 1006.1
20260506004921 21 148 3.2 8.0 0.00 0.00 0.00 89 1005.9
20260506004419 21 168 3.2 9.7 0.00 0.00 0.00 89 1006.1
20260506003917 21 179 4.8 8.0 0.00 0.00 0.00 90 1006.1
20260506003417 21 188 4.8 11.3 0.00 0.00 0.00 89 1005.9
20260506002917 21 165 4.8 11.3 0.00 0.00 0.00 90 1006.0
20260506002417 21 126 3.2 9.7 0.00 0.00 0.00 90 1006.0
20260506001917 21 152 3.2 6.4 0.00 0.00 0.00 90 1006.2
20260506001431 21 160 3.2 9.7 0.00 0.00 0.00 90 1006.0
20260506000917 21 174 4.8 8.0 0.00 0.00 0.00 90 1006.2
20260506000423 21 188 4.8 11.3 0.00 0.00 0.00 90 1006.0
20260505235917 21 177 4.8 11.3 0.00 0.00 0.00 90 1006.1
20260505235417 21 185 3.2 9.7 0.00 0.00 0.00 90 1006.2
20260505234917 21 157 3.2 9.7 0.00 0.00 0.00 90 1006.2
20260505234418 21 170 3.2 8.0 0.00 0.00 0.00 90 1006.4
20260505233917 21 210 3.2 11.3 0.00 0.00 0.00 90 1006.6
20260505233417 21 188 4.8 8.0 0.00 0.00 0.00 90 1006.7
20260505232917 21 135 4.8 9.7 0.00 0.00 0.00 90 1006.8
20260505232417 21 157 3.2 9.7 0.00 0.00 0.00 90 1007.0
20260505231917 21 168 3.2 12.9 0.00 0.00 0.00 89 1006.9
20260505231417 21 195 1.6 8.0 0.00 0.00 0.00 89 1006.9
20260505230919 21 186 3.2 6.4 0.00 0.00 0.00 89 1006.9
20260505230417 21 158 4.8 9.7 0.00 0.00 0.00 89 1007.0
20260505225919 21 166 3.2 8.0 0.00 0.00 0.00 89 1007.1
20260505225417 21 161 3.2 8.0 0.00 0.00 0.00 89 1006.9
20260505224917 21 173 3.2 6.4 0.00 0.00 0.00 89 1007.0
20260505224417 21 171 3.2 8.0 0.00 0.00 0.00 89 1007.0
20260505223917 21 162 3.2 8.0 0.00 0.00 0.00 89 1007.1
20260505223417 21 206 3.2 11.3 0.00 0.00 0.00 89 1007.1
20260505222917 21 152 3.2 11.3 0.00 0.00 0.00 89 1007.1
20260505222417 21 159 4.8 9.7 0.00 0.00 0.00 90 1007.1
20260505221917 20 209 3.2 12.9 0.00 0.00 0.00 90 1007.1
20260505221417 21 163 3.2 8.0 0.00 0.00 0.00 90 1007.2
20260505220917 21 167 3.2 9.7 0.00 0.00 0.00 89 1007.4
20260505220417 21 139 3.2 9.7 0.00 0.00 0.00 88 1007.2
20260505215917 21 188 6.4 410.4 0.00 0.00 0.00 88 1007.3
20260505215417 21 266 6.4 410.4 0.00 0.00 0.00 87 1007.3
20260505214917 -17 767 410.4 410.4 0.00 0.00 0.00 1007.6
20260505214417 -17 767 410.4 410.4 0.00 0.00 0.00 1007.6
20260505213917 -17 767 410.4 410.4 0.00 0.00 0.00 1007.5
20260505213418 -17 767 410.4 410.4 0.00 0.00 0.00 1007.6
20260505212917 -17 767 410.4 410.4 0.00 0.00 0.00 1007.5
20260505212417 -17 767 410.4 410.4 0.00 0.00 0.00 1007.6
20260505211917 -17 767 410.4 410.4 0.00 0.00 0.00 1007.6
20260505211421 -17 767 410.4 410.4 0.00 0.00 0.00 1007.7
20260505210917 -17 767 410.4 410.4 0.00 0.00 0.00 1007.6
20260505210420 -17 767 410.4 410.4 0.00 0.00 0.00 1007.7
20260505205917 -17 767 410.4 410.4 0.00 0.00 0.00 1007.6
20260505205425 -17 767 410.4 410.4 0.00 0.00 0.00 1007.7
20260505204917 -17 767 410.4 410.4 0.00 0.00 0.00 1007.7
20260505204417 -17 767 410.4 410.4 0.00 0.00 0.00 1007.7
20260505203917 -17 767 410.4 410.4 0.00 0.00 0.00 1007.8
20260505203417 -17 767 410.4 410.4 0.00 0.00 0.00 1007.7
20260505202917 -17 767 410.4 410.4 0.00 0.00 0.00 1007.8
20260505202420 -17 767 410.4 410.4 0.00 0.00 0.00 1007.8
20260505201917 -17 767 410.4 410.4 0.00 0.00 0.00 1007.9
20260505201417 -17 767 410.4 410.4 0.00 0.00 0.00 1008.0
20260505200918 -17 767 410.4 410.4 0.00 0.00 0.00 1008.0
20260505200418 -17 767 410.4 410.4 0.00 0.00 0.00 1007.9
20260505195918 -17 767 410.4 410.4 0.00 0.00 0.00 1008.0
20260505195418 -17 767 410.4 410.4 0.00 0.00 0.00 1008.0
20260505194918 -17 767 410.4 410.4 0.00 0.00 0.00 1007.9
20260505194418 -17 767 410.4 410.4 0.00 0.00 0.00 1007.9
20260505193920 -17 767 410.4 410.4 0.00 0.00 0.00 1007.9
20260505193420 -17 767 410.4 410.4 0.00 0.00 0.00 1008.1
20260505192918 -17 767 410.4 410.4 0.00 0.00 0.00 1008.1
20260505192418 -17 767 410.4 410.4 0.00 0.00 0.00 1008.3
20260505191918 -17 767 410.4 410.4 0.00 0.00 0.00 1008.2
20260505191420 -17 767 410.4 410.4 0.00 0.00 0.00 1008.1
20260505190918 -17 767 410.4 410.4 0.00 0.00 0.00 1008.1
20260505190418 -17 767 410.4 410.4 0.00 0.00 0.00 1008.3
20260505185918 -17 767 410.4 410.4 0.00 0.00 0.00 1008.4
20260505185418 -17 767 410.4 410.4 0.00 0.00 0.00 1008.7
20260505184918 -17 767 410.4 410.4 0.00 0.00 0.00 1008.7
20260505184420 -17 767 410.4 410.4 0.00 0.00 0.00 1008.7
20260505183918 -17 767 410.4 410.4 0.00 0.00 0.00 1008.6
20260505183418 -17 767 410.4 410.4 0.00 0.00 0.00 1008.6
20260505182918 -17 767 410.4 410.4 0.00 0.00 0.00 1008.7
20260505182418 -17 767 410.4 410.4 0.00 0.00 0.00 1008.7
20260505181918 -17 767 410.4 410.4 0.00 0.00 0.00 1008.7
20260505181418 -17 767 410.4 410.4 0.00 0.00 0.00 1008.8
20260505180918 -17 767 410.4 410.4 0.00 0.00 0.00 1008.6
20260505180418 -17 767 410.4 410.4 0.00 0.00 0.00 1008.9
20260505175918 -17 767 410.4 410.4 0.00 0.00 0.00 1008.8
20260505175418 -17 767 410.4 410.4 0.00 0.00 0.00 1009.0
20260505174920 -17 767 410.4 410.4 0.00 0.00 0.00 1009.1
20260505174418 -17 767 410.4 410.4 0.00 0.00 0.00 1009.2
20260505173918 -17 767 410.4 410.4 0.00 0.00 0.00 1009.3
20260505173418 -17 767 410.4 410.4 0.00 0.00 0.00 1009.3
20260505172920 -17 767 410.4 410.4 0.00 0.00 0.00 1009.3
20260505172418 -17 767 410.4 410.4 0.00 0.00 0.00 1009.4
20260505171918 -17 767 410.4 410.4 0.00 0.00 0.00 1009.6
20260505171418 -17 767 410.4 410.4 0.00 0.00 0.00 1009.6
20260505170918 -17 767 410.4 410.4 0.00 0.00 0.00 1009.7
20260505170418 -17 767 410.4 410.4 0.00 0.00 0.00 1009.8
20260505165918 -17 767 410.4 410.4 0.00 0.00 0.00 1009.8
20260505165418 -17 767 410.4 410.4 0.00 0.00 0.00 1009.8
20260505164920 -17 767 410.4 410.4 0.00 0.00 0.00 1009.8
20260505164418 -17 767 410.4 410.4 0.00 0.00 0.00 1009.8
20260505163918 -17 767 410.4 410.4 0.00 0.00 0.00 1009.8
20260505163418 -17 767 410.4 410.4 0.00 0.00 0.00 1009.9
20260505162918 -17 767 410.4 410.4 0.00 0.00 0.00 1009.8
20260505162422 -17 767 410.4 410.4 0.00 0.00 0.00 1009.9
20260505161918 -17 767 410.4 410.4 0.00 0.00 0.00 1009.8
20260505161418 -17 767 410.4 410.4 0.00 0.00 0.00 1009.8
20260505160918 -17 767 410.4 410.4 0.00 0.00 0.00 1009.6
20260505160418 -17 767 410.4 410.4 0.00 0.00 0.00 1009.7
20260505152918 -17 767 410.4 410.4 0.00 0.00 0.00 1009.8
20260505152418 -17 767 410.4 410.4 0.00 0.00 0.00 1009.8
20260505151918 -17 767 410.4 410.4 0.00 0.00 0.00 1009.7
20260505151418 -17 767 410.4 410.4 0.00 0.00 0.00 1009.8
20260505150918 -17 767 410.4 410.4 0.00 0.00 0.00 1009.6
20260505150418 -17 767 410.4 410.4 0.00 0.00 0.00 1009.8
20260505140418 -17 767 410.4 410.4 0.00 0.00 0.00 1009.8
20260505124918 -17 767 410.4 410.4 0.00 0.00 0.00 1009.5
20260505124418 -17 767 410.4 410.4 0.00 0.00 0.00 1009.4
20260505123918 -17 767 410.4 410.4 0.00 0.00 0.00 1009.4
20260505123423 -17 767 410.4 410.4 0.00 0.00 0.00 1009.3
20260505122918 -17 767 410.4 410.4 0.00 0.00 0.00 1009.2
20260505122418 -17 767 410.4 410.4 0.00 0.00 0.00 1009.2
20260505121918 -17 767 410.4 410.4 0.00 0.00 0.00 1009.3
20260505121418 -17 767 410.4 410.4 0.00 0.00 0.00 1009.1
20260505120918 -17 767 410.4 410.4 0.00 0.00 0.00
20260505120418 -17 767 410.4 410.4 0.00 0.00 0.00
20260505115918 -17 767 410.4 410.4 0.00 0.00 0.00 1009.1
20260505115418 -17 767 410.4 410.4 0.00 0.00 0.00 1009.0
20260505114918 -17 767 410.4 410.4 0.00 0.00 0.00 1008.8
20260505114418 -17 767 410.4 410.4 0.00 0.00 0.00 1008.7
20260505113918 -17 767 410.4 410.4 0.00 0.00 0.00 1008.7
20260505113418 -17 767 410.4 410.4 0.00 0.00 0.00 1008.7
20260505112918 -17 767 410.4 410.4 0.00 0.00 0.00 1008.7
20260505112418 -17 767 410.4 410.4 0.00 0.00 0.00 1008.5
20260505111918 -17 767 410.4 410.4 0.00 0.00 0.00 1008.5
20260505111418 -17 767 410.4 410.4 0.00 0.00 0.00 1008.3
20260505110918 -17 767 410.4 410.4 0.00 0.00 0.00
20260505110418 -17 767 410.4 410.4 0.00 0.00 0.00
20260505101918 -17 767 410.4 410.4 0.00 0.00 0.00 1008.1
20260505101418 -17 767 410.4 410.4 0.00 0.00 0.00 1008.0
20260505100918 -17 767 410.4 410.4 0.00 0.00 0.00 1008.0
20260505100418 -17 767 410.4 410.4 0.00 0.00 0.00 1008.1
20260505095918 -17 767 410.4 410.4 0.00 0.00 0.00 1008.0
20260505095418 -17 767 410.4 410.4 0.00 0.00 0.00 1008.1
20260505094918 -17 767 410.4 410.4 0.00 0.00 0.00 1008.3
20260505094418 -17 767 410.4 410.4 0.00 0.00 0.00 1008.4
20260505093918 -17 767 410.4 410.4 0.00 0.00 0.00 1008.3
20260505093418 -17 767 410.4 410.4 0.00 0.00 0.00 1008.4
20260505092918 -17 767 410.4 410.4 0.00 0.00 0.00 1008.3
20260505092419 -17 767 410.4 410.4 0.00 0.00 0.00 1008.4
20260505091918 -17 767 410.4 410.4 0.00 0.00 0.00 1008.5
20260505091418 -17 767 410.4 410.4 0.00 0.00 0.00 1008.5
20260505090918 -17 767 410.4 410.4 0.00 0.00 0.00 1008.5
20260505090418 -17 767 410.4 410.4 0.00 0.00 0.00 1008.5
20260505085918 -17 767 410.4 410.4 0.00 0.00 0.00 1008.7
20260505085418 -17 767 410.4 410.4 0.00 0.00 0.00 1008.7
20260505084918 -17 767 410.4 410.4 0.00 0.00 0.00 1008.7
20260505084419 -17 767 410.4 410.4 0.00 0.00 0.00 1008.5
20260505083919 -17 767 410.4 410.4 0.00 0.00 0.00 1008.7
20260505083419 -17 767 410.4 410.4 0.00 0.00 0.00 1008.7
20260505082919 -17 767 410.4 410.4 0.00 0.00 0.00 1008.6
20260505082419 -17 767 410.4 410.4 0.00 0.00 0.00 1008.5
20260505081921 -17 767 410.4 410.4 0.00 0.00 0.00 1008.7
20260505081419 -17 767 410.4 410.4 0.00 0.00 0.00 1008.6
20260505080919 -17 767 410.4 410.4 0.00 0.00 0.00 1008.5
20260505080419 -17 767 410.4 410.4 0.00 0.00 0.00 1008.6
20260505075919 -17 767 410.4 410.4 0.00 0.00 0.00 1008.6
20260505075419 -17 767 410.4 410.4 0.00 0.00 0.00 1008.6
20260505074919 -17 767 410.4 410.4 0.00 0.00 0.00 1008.7
20260505074419 -17 767 410.4 410.4 0.00 0.00 0.00 1009.0
20260505073919 -17 767 410.4 410.4 0.00 0.00 0.00 1009.0
20260505073419 -17 767 410.4 410.4 0.00 0.00 0.00 1009.0
20260505072919 -17 767 410.4 410.4 0.00 0.00 0.00 1009.0
20260505072419 -17 767 410.4 410.4 0.00 0.00 0.00 1009.2
20260505071919 -17 767 410.4 410.4 0.00 0.00 0.00 1009.2
20260505071419 -17 767 410.4 410.4 0.00 0.00 0.00 1009.4
20260505070919 -17 767 410.4 410.4 0.00 0.00 0.00 1009.1
20260505070419 -17 767 410.4 410.4 0.00 0.00 0.00 1009.0
20260505065919 -17 767 410.4 410.4 0.00 0.00 0.00 1008.9
20260505065419 -17 767 410.4 410.4 0.00 0.00 0.00 1009.2
20260505064919 -17 767 410.4 410.4 0.00 0.00 0.00 1009.1